SCP
0 0 0 0 0 0 0 1 1 0 1 1 1 1 0 0 0 0 0 0 0 0 0 0 0 0 0 0 0 0 -0 0
0 0 0 0 0 0 0 0 1 1 1 1 1 1 1 1 0 1 1 1 1 1 1 1 2 1 1 1 1 1 1 0
0 0 0 0 0 0 0 0 1 2 2 4 3 2 1 1 1 1 1 1 1 1 1 1 0 1 0 0 0 0 1 0
0 0 0 0 0 0 0 0 1 1 1 3 4 5 2 2 2 2 1 2 3 1 1 1 0 0 0 0 0 0 0 0
0 0 0 0 0 0 0 0 2 2 2 2 3 2 2 2 2 3 3 1 1 1 0 0 0 0 0 0 0 0 0 0
0 0 0 0 0 0 0 0 2 2 2 2 1 3 3 4 6 2 2 1 1 1 0 0 0 0 0 0 0 0 0 0
0 0 0 0 0 0 0 0 1 3 3 1 1 3 1 1 0 0 1 1 0 0 0 0 0 0 0 0 0 0 0 0
0 0 0 0 0 0 0 1 2 4 4 3 1 1 1 0 1 1 0 0 0 0 0 0 0 0 0 0 0 0 0 0
0 0 0 0 0 0 0 1 5 5 3 2 1 1 1 0 0 0 0 0 0 0 0 0 0 0 0 0 0 0 0 0
0 0 0 0 0 1 2 2 4 3 3 3 1 1 0 0 0 0 0 0 0 0 0 0 0 0 0 0 0 0 0 0
0 0 0 0 0 1 1 1 2 3 3 2 3 2 1 0 0 0 0 0 0 0 0 0 0 0 0 0 0 0 0 0
0 0 0 0 0 0 0 1 1 0 1 1 1 0 0 0 0 0 0 0 0 0 0 0 0 0 0 0 0 0 0 0
0 0 0 0 0 0 0 0 0 0 0 0 0 0 0 0 0 0 0 0 0 0 0 0 0 0 0 0 0 0 0 0
0 0 0 0 0 0 0 0 0 0 0 0 0 0 0 0 0 0 0 0 0 0 0 0 0 0 0 0 0 0 0 0
0 0 0 0 0 0 0 0 0 0 0 0 0 0 0 0 0 0 0 0 0 0 0 0 0 0 0 0 0 0 0 0
0 0 0 0 0 0 0 0 0 0 0 0 0 0 0 0 0 0 0 0 0 0 0 0 0 0 0 0 0 0 0 0
0 0 0 0 0 0 0 0 0 0 0 0 0 0 0 0 0 0 0 0 0 0 0 0 0 0 0 0 0 0 0 0
0 0 0 0 0 0 0 0 0 0 0 0 0 0 0 0 0 0 0 0 0 0 0 0 0 0 0 0 0 0 0 0
0 0 0 0 0 0 0 0 0 0 0 0 0 0 0 0 0 0 0 0 0 0 0 0 0 0 0 0 0 0 0 0
0 0 0 0 0 0 0 0 0 0 0 0 1 0 0 0 0 0 0 0 0 0 0 0 0 0 0 0 0 0 0 0
Wind_Speed_500mb
16 17 13 7 16 16 14 22 21 21 20 19 16 18 17 17 19 17 13 15 13 11 13 14 18 18 24 24 28 26 21 22
20 23 21 20 11 12 18 15 17 23 22 24 22 23 22 21 19 21 17 16 15 18 14 12 18 19 16 17 22 27 27 33
26 27 25 12 13 17 16 19 21 21 24 23 24 26 22 19 22 27 17 19 17 13 17 16 17 13 21 23 23 23 29 31
19 21 25 19 16 15 13 13 18 21 22 26 33 27 21 20 19 21 16 15 20 8 6 6 10 18 18 23 26 30 32 36
19 17 20 21 21 18 17 14 16 16 20 26 26 18 16 22 20 27 21 12 6 6 7 8 10 13 22 28 30 34 38 42
13 16 19 21 24 19 21 17 19 15 16 18 13 16 19 22 28 15 15 6 4 10 4 9 17 22 24 29 32 37 41 45
25 22 21 23 25 23 23 25 22 23 24 20 16 22 17 13 4 6 12 13 9 6 5 9 21 18 21 26 30 33 43 47
11 20 24 23 25 23 27 28 27 25 29 30 22 17 17 17 15 18 17 13 8 4 4 13 21 19 24 28 42 37 39 46
7 8 11 13 15 17 23 25 31 32 25 27 27 23 22 20 20 19 16 11 6 9 8 14 19 25 33 42 37 40 42 44
5 5 6 8 10 13 17 24 28 26 25 26 26 27 21 20 16 17 13 8 13 13 24 28 31 34 43 43 42 45 49 47
9 12 12 12 13 15 15 18 22 23 30 28 36 33 29 18 11 6 11 18 23 29 34 36 40 41 37 43 46 51 54 47
11 14 16 18 19 20 20 20 20 18 17 18 20 20 19 20 13 14 19 20 26 32 33 34 42 45 50 47 43 50 50 61
10 11 13 14 15 15 16 16 17 18 22 13 17 14 13 11 12 19 22 22 27 29 30 36 45 50 51 60 60 55 49 54
4 6 7 7 6 6 5 5 7 9 9 16 22 24 19 16 16 19 18 18 22 25 29 45 56 57 54 59 65 62 55 56
8 12 11 3 5 5 7 8 8 8 8 11 14 19 24 24 21 17 24 22 25 31 47 56 59 64 67 68 67 65 59 57
11 10 12 21 14 13 18 21 22 22 18 17 17 20 16 19 21 22 24 30 35 39 51 56 62 65 65 63 56 54 55 56
46 37 30 30 32 35 37 35 36 35 33 29 27 25 27 26 35 37 31 32 34 39 50 58 61 60 55 54 51 56 56 54
33 40 45 46 47 45 47 47 46 43 41 39 35 30 27 28 29 31 34 37 39 43 49 50 50 49 47 49 48 49 52 49
38 48 50 48 52 54 54 57 46 44 44 45 41 39 34 34 34 33 36 38 41 45 46 46 46 45 45 47 51 48 47 52
45 54 60 61 58 60 59 52 44 70 75 55 54 41 37 38 39 37 38 43 45 45 45 44 43 44 42 47 47 49 46 46
Wind_Direction_500mb
244 236 260 236 214 198 210 200 202 209 211 225 200 209 200 210 202 212 190 220 226 227 242 301 326 321 315 299 314 311 312 285
248 250 248 237 231 210 216 221 215 210 217 217 210 205 199 191 204 206 200 205 223 210 211 222 224 239 259 269 264 258 271 273
255 253 253 241 204 223 222 220 219 221 212 224 213 206 211 194 209 211 208 217 221 212 226 234 253 260 284 293 297 293 284 279
250 240 236 219 213 200 209 214 220 214 215 218 210 203 187 191 196 208 193 196 223 211 8 276 306 309 320 318 314 302 294 289
243 230 215 216 215 215 197 195 211 227 192 208 207 209 204 192 190 193 199 191 188 182 282 292 299 290 304 315 304 299 296 292
238 232 231 226 225 212 206 222 193 205 206 186 178 201 188 203 193 158 170 156 188 261 278 284 273 307 307 304 303 300 297 293
252 242 248 237 229 216 204 207 204 198 214 172 181 192 178 221 256 187 176 194 201 171 273 280 302 323 315 312 310 303 300 298
283 265 257 247 226 216 213 202 198 188 212 173 187 184 192 197 190 191 177 171 181 163 293 300 321 319 311 303 301 309 305 304
272 264 240 227 204 196 191 192 192 191 192 188 194 195 192 172 172 157 156 158 221 278 315 299 311 309 294 306 308 303 305 304
63 84 152 162 145 156 169 184 201 188 197 196 201 188 184 183 174 167 177 216 261 301 292 300 301 301 302 309 309 300 299 298
100 93 103 113 115 121 134 152 169 176 182 172 161 170 179 174 184 187 229 254 279 297 307 309 308 307 302 293 290 290 292 293
116 106 100 103 105 110 115 123 128 132 133 158 165 185 195 193 188 225 251 298 292 300 304 301 299 303 303 304 298 281 284 289
147 123 109 107 105 110 113 118 140 150 154 152 170 177 212 214 222 252 279 298 299 296 301 301 304 307 301 301 302 298 289 286
145 127 139 130 118 116 115 134 196 204 204 209 198 209 212 223 246 255 291 281 288 298 297 300 307 309 308 300 300 296 290 278
233 229 212 219 252 265 279 283 285 268 262 264 260 253 253 263 275 276 272 291 297 296 294 307 309 308 306 303 299 294 293 288
259 304 292 291 299 274 284 288 280 276 269 265 263 262 266 266 282 271 279 291 296 290 302 306 306 305 302 299 298 294 286 282
13 9 353 339 319 297 290 285 279 275 271 266 264 267 270 262 258 274 287 288 291 292 294 304 304 303 300 297 297 293 290 285
326 317 322 314 310 306 299 284 274 277 277 270 270 269 266 272 276 280 283 286 290 294 297 301 299 298 297 296 295 294 289 285
302 307 306 304 309 302 299 290 290 285 270 270 269 269 271 274 271 271 279 287 291 294 295 296 297 297 297 295 294 295 293 286
317 305 299 299 298 298 295 297 295 281 274 275 270 258 269 280 282 279 281 287 287 291 293 296 295 294 295 291 294 295 289 294
Wind_Speed_850mb
16 17 13 7 16 16 14 22 21 21 20 19 16 18 17 17 19 17 13 15 13 11 13 14 18 18 24 24 28 26 21 22
20 23 21 20 11 12 18 15 17 23 22 24 22 23 22 21 19 21 17 16 15 18 14 12 18 19 16 17 22 27 27 33
26 27 25 12 13 17 16 19 21 21 24 23 24 26 22 19 22 27 17 19 17 13 17 16 17 13 21 23 23 23 29 31
19 21 25 19 16 15 13 13 18 21 22 26 33 27 21 20 19 21 16 15 20 8 6 6 10 18 18 23 26 30 32 36
19 17 20 21 21 18 17 14 16 16 20 26 26 18 16 22 20 27 21 12 6 6 7 8 10 13 22 28 30 34 38 42
13 16 19 21 24 19 21 17 19 15 16 18 13 16 19 22 28 15 15 6 4 10 4 9 17 22 24 29 32 37 41 45
25 22 21 23 25 23 23 25 22 23 24 20 16 22 17 13 4 6 12 13 9 6 5 9 21 18 21 26 30 33 43 47
11 20 24 23 25 23 27 28 27 25 29 30 22 17 17 17 15 18 17 13 8 4 4 13 21 19 24 28 42 37 39 46
7 8 11 13 15 17 23 25 31 32 25 27 27 23 22 20 20 19 16 11 6 9 8 14 19 25 33 42 37 40 42 44
5 5 6 8 10 13 17 24 28 26 25 26 26 27 21 20 16 17 13 8 13 13 24 28 31 34 43 43 42 45 49 47
9 12 12 12 13 15 15 18 22 23 30 28 36 33 29 18 11 6 11 18 23 29 34 36 40 41 37 43 46 51 54 47
11 14 16 18 19 20 20 20 20 18 17 18 20 20 19 20 13 14 19 20 26 32 33 34 42 45 50 47 43 50 50 61
10 11 13 14 15 15 16 16 17 18 22 13 17 14 13 11 12 19 22 22 27 29 30 36 45 50 51 60 60 55 49 54
4 6 7 7 6 6 5 5 7 9 9 16 22 24 19 16 16 19 18 18 22 25 29 45 56 57 54 59 65 62 55 56
8 12 11 3 5 5 7 8 8 8 8 11 14 19 24 24 21 17 24 22 25 31 47 56 59 64 67 68 67 65 59 57
11 10 12 21 14 13 18 21 22 22 18 17 17 20 16 19 21 22 24 30 35 39 51 56 62 65 65 63 56 54 55 56
46 37 30 30 32 35 37 35 36 35 33 29 27 25 27 26 35 37 31 32 34 39 50 58 61 60 55 54 51 56 56 54
33 40 45 46 47 45 47 47 46 43 41 39 35 30 27 28 29 31 34 37 39 43 49 50 50 49 47 49 48 49 52 49
38 48 50 48 52 54 54 57 46 44 44 45 41 39 34 34 34 33 36 38 41 45 46 46 46 45 45 47 51 48 47 52
45 54 60 61 58 60 59 52 44 70 75 55 54 41 37 38 39 37 38 43 45 45 45 44 43 44 42 47 47 49 46 46
Wind_Direction_850mb
244 236 260 236 214 198 210 200 202 209 211 225 200 209 200 210 202 212 190 220 226 227 242 301 326 321 315 299 314 311 312 285
248 250 248 237 231 210 216 221 215 210 217 217 210 205 199 191 204 206 200 205 223 210 211 222 224 239 259 269 264 258 271 273
255 253 253 241 204 223 222 220 219 221 212 224 213 206 211 194 209 211 208 217 221 212 226 234 253 260 284 293 297 293 284 279
250 240 236 219 213 200 209 214 220 214 215 218 210 203 187 191 196 208 193 196 223 211 8 276 306 309 320 318 314 302 294 289
243 230 215 216 215 215 197 195 211 227 192 208 207 209 204 192 190 193 199 191 188 182 282 292 299 290 304 315 304 299 296 292
238 232 231 226 225 212 206 222 193 205 206 186 178 201 188 203 193 158 170 156 188 261 278 284 273 307 307 304 303 300 297 293
252 242 248 237 229 216 204 207 204 198 214 172 181 192 178 221 256 187 176 194 201 171 273 280 302 323 315 312 310 303 300 298
283 265 257 247 226 216 213 202 198 188 212 173 187 184 192 197 190 191 177 171 181 163 293 300 321 319 311 303 301 309 305 304
272 264 240 227 204 196 191 192 192 191 192 188 194 195 192 172 172 157 156 158 221 278 315 299 311 309 294 306 308 303 305 304
63 84 152 162 145 156 169 184 201 188 197 196 201 188 184 183 174 167 177 216 261 301 292 300 301 301 302 309 309 300 299 298
100 93 103 113 115 121 134 152 169 176 182 172 161 170 179 174 184 187 229 254 279 297 307 309 308 307 302 293 290 290 292 293
116 106 100 103 105 110 115 123 128 132 133 158 165 185 195 193 188 225 251 298 292 300 304 301 299 303 303 304 298 281 284 289
147 123 109 107 105 110 113 118 140 150 154 152 170 177 212 214 222 252 279 298 299 296 301 301 304 307 301 301 302 298 289 286
145 127 139 130 118 116 115 134 196 204 204 209 198 209 212 223 246 255 291 281 288 298 297 300 307 309 308 300 300 296 290 278
233 229 212 219 252 265 279 283 285 268 262 264 260 253 253 263 275 276 272 291 297 296 294 307 309 308 306 303 299 294 293 288
259 304 292 291 299 274 284 288 280 276 269 265 263 262 266 266 282 271 279 291 296 290 302 306 306 305 302 299 298 294 286 282
13 9 353 339 319 297 290 285 279 275 271 266 264 267 270 262 258 274 287 288 291 292 294 304 304 303 300 297 297 293 290 285
326 317 322 314 310 306 299 284 274 277 277 270 270 269 266 272 276 280 283 286 290 294 297 301 299 298 297 296 295 294 289 285
302 307 306 304 309 302 299 290 290 285 270 270 269 269 271 274 271 271 279 287 291 294 295 296 297 297 297 295 294 295 293 286
317 305 299 299 298 298 295 297 295 281 274 275 270 258 269 280 282 279 281 287 287 291 293 296 295 294 295 291 294 295 289 294